Flag for Switzerland Weather past 2 weeks in Meyrin, Geneva, Switzerland

Now
61 °F

Passing clouds.


Feels Like: 61 °F
Forecast: 53 / 76 °F
Wind: 1 mph from North

Location: Geneva Cointrin Airport

Current Time: Sep 18, 2014 at 6:18:34 AM

Latest Report: Sep 18, 2014 at 5:50 AM


Visibility: N/A

Pressure: 29.89 "Hg

Humidity: 94%

Dew point: 59 °F

Location of MeyrinLocation

Historic Weather in Meyrin — Graph

°F

Meyrin temperature yesterday

Maximum temperature yesterday: 77 °F (at 5:20 PM)
Minimum temperature yesterday: 57 °F (at 1:20 AM)
Average temperature yesterday: 65 °F

Past Weeks' High & Low Weather Summary

 TemperatureHumidityPressure
High84 °F (Sep 8, 3:20 PM)100% (Sep 4, 5:20 AM)30.09 "Hg (Sep 4, 5:20 AM)
Low52 °F (Sep 4, 5:20 AM)43% (Sep 8, 3:20 PM)29.86 "Hg (Sep 17, 2:50 PM)
Average64 °F77%29.99 "Hg
* Reported Sep 3 5:20 AM — Sep 18 5:20 AM, Meyrin, Weather by CustomWeather, © 2014

Note: Actual official high and low records may vary slightly from our data, if they occured in-between our weather recording intervals... More about our weather records

Advertising

Meyrin weather history for previous 24 hours

 ConditionsComfort  
Time TempWeatherWind HumidityBarometerVisibility
5:20 AM
Sep 18
61 °FPassing clouds.No wind100%29.89 "HgN/A
4:50 AM61 °FPassing clouds.3 mph94%29.89 "HgN/A
4:20 AM61 °FPassing clouds.No wind94%29.89 "HgN/A
3:50 AM61 °FPartly cloudy.1 mph100%29.89 "HgN/A
2:50 AM63 °FClear.2 mph94%29.89 "Hg10 mi
2:20 AM64 °FPartly cloudy.1 mph88%29.92 "HgN/A
1:50 AM64 °FPartly cloudy.1 mph88%29.92 "HgN/A
1:20 AM64 °FPassing clouds.2 mph88%29.92 "HgN/A
12:50 AM64 °FPassing clouds.1 mph88%29.92 "HgN/A
12:20 AM64 °FPartly cloudy.2 mph88%29.92 "HgN/A
11:50 PM
Sep 17
64 °FPartly cloudy.1 mph83%29.92 "HgN/A
11:20 PM64 °FPartly cloudy.2 mph83%29.92 "HgN/A
10:50 PM64 °FPartly cloudy.1 mph83%29.92 "HgN/A
10:20 PM66 °FPassing clouds.3 mph83%29.89 "HgN/A
9:50 PM66 °FPassing clouds.3 mph83%29.89 "HgN/A
9:20 PM66 °FPartly cloudy.3 mph83%29.89 "HgN/A
8:50 PM66 °FPassing clouds.2 mph78%29.89 "HgN/A
8:20 PM66 °FPartly sunny.1 mph78%29.89 "HgN/A
7:50 PM68 °FBroken clouds.1 mph73%29.86 "HgN/A
7:20 PM70 °FPartly sunny.1 mph69%29.86 "HgN/A
6:50 PM72 °FPartly sunny.3 mph65%29.86 "HgN/A
6:20 PM72 °FPartly sunny.2 mph65%29.86 "HgN/A
5:50 PM73 °FPartly sunny.3 mph61%29.86 "HgN/A
5:20 PM77 °FPartly sunny.6 mph54%29.86 "HgN/A
4:50 PM75 °FPartly sunny.3 mph61%29.86 "HgN/A
4:20 PM73 °FPartly sunny.3 mph61%29.86 "HgN/A
3:50 PM73 °FPartly sunny.5 mph61%29.86 "HgN/A
3:20 PM73 °FPartly sunny.6 mph61%29.86 "HgN/A
2:50 PM75 °FPartly sunny.7 mph54%29.86 "HgN/A
2:20 PM73 °FPartly sunny.7 mph57%29.89 "HgN/A
1:50 PM72 °FBroken clouds.6 mph61%29.89 "HgN/A
1:20 PM72 °FBroken clouds.6 mph61%29.89 "HgN/A
12:50 PM72 °FBroken clouds.6 mph61%29.89 "HgN/A
12:20 PM70 °FScattered clouds.7 mph69%29.92 "HgN/A
11:50 AM70 °FScattered clouds.7 mph64%29.92 "HgN/A
11:20 AM68 °FPartly sunny.2 mph73%29.92 "HgN/A
10:50 AM66 °FPartly sunny.5 mph78%29.92 "HgN/A
10:20 AM66 °FPartly sunny.1 mph78%29.92 "HgN/A
9:50 AM66 °FScattered clouds.1 mph78%29.92 "HgN/A
9:20 AM63 °FScattered clouds.1 mph88%29.92 "HgN/A
8:50 AM61 °FScattered clouds.2 mph94%29.92 "HgN/A
8:20 AM61 °FScattered clouds.No wind88%29.92 "HgN/A
7:50 AM59 °FPassing clouds.1 mph94%29.92 "HgN/A
7:20 AM57 °FPassing clouds.1 mph100%29.92 "HgN/A
6:50 AM57 °FPassing clouds.1 mph100%29.89 "HgN/A
6:20 AM57 °FPassing clouds.2 mph100%29.92 "HgN/A
Weather by CustomWeather, © 2014

See weather overviewHow to use our weather pages